Location: Treviso
(45.6669°N, 12.2430°E)
Time: 10:33:35
(UTC+02:00)

ISS - Pass Details

Date: 02 July 2022
Orbit: 414 x 420 km, 51.6° (Epoch: 02 July)

Event Time Altitude Azimuth Distance (km) Brightness Sun altitude
Exits shadow 04:08:29 11° 259° (W) 1,432 -1.5 -10.8°
Maximum altitude 04:11:37 54° 338° (NNW) 516 -3.2 -10.5°
Drops below altitude 10° 04:14:56 10° 57° (ENE) 1,502 0.5 -10.1°
Sets 04:17:05 0° 62° (ENE) 2,369 1.6 -9.8°
